Time,TemperatureF,DewpointF,PressureIn,WindDirection,WindDirectionDegrees,WindSpeedMPH,WindSpeedGustMPH,Humidity,HourlyPrecipIn,Conditions,Clouds,dailyrainin,SoftwareType,DateUTC
2013-07-22 00:01:00,65.2,63.7,16.97,North,360,0.0,0.0,95,0.00,,SKC,0.54,VWS V14.01,2013-07-22 04:01:00,
2013-07-22 00:06:00,65.2,63.7,16.97,North,5,0.0,0.0,95,0.00,,SKC,0.00,VWS V14.01,2013-07-22 04:06:00,
2013-07-22 00:11:00,65.1,63.6,16.97,North,5,0.0,0.0,95,0.00,,SKC,0.00,VWS V14.01,2013-07-22 04:11:00,
2013-07-22 00:16:00,65.0,63.5,16.97,North,360,0.0,0.0,95,0.00,,SKC,0.00,VWS V14.01,2013-07-22 04:16:00,
2013-07-22 00:21:00,65.0,63.5,16.97,North,360,0.0,0.0,95,0.00,,SKC,0.00,VWS V14.01,2013-07-22 04:21:00,
2013-07-22 00:26:00,64.9,63.4,16.97,North,5,0.0,0.0,95,0.00,,SKC,0.00,VWS V14.01,2013-07-22 04:26:00,
2013-07-22 00:31:00,64.9,63.4,16.97,North,5,0.0,0.0,95,0.00,,SKC,0.00,VWS V14.01,2013-07-22 04:31:00,
2013-07-22 00:36:00,64.8,63.3,16.97,North,5,0.0,0.0,95,0.00,,SKC,0.00,VWS V14.01,2013-07-22 04:36:00,
2013-07-22 00:41:00,64.8,63.3,16.97,North,360,0.0,0.0,95,0.00,,SKC,0.00,VWS V14.01,2013-07-22 04:41:00,
2013-07-22 00:46:00,64.8,63.3,16.97,North,360,0.0,0.0,95,0.00,,SKC,0.00,VWS V14.01,2013-07-22 04:46:00,
2013-07-22 00:51:00,64.8,63.3,16.97,North,5,0.0,0.0,95,0.00,,SKC,0.00,VWS V14.01,2013-07-22 04:51:00,
2013-07-22 00:56:00,64.7,63.2,16.97,North,5,0.0,0.0,95,0.00,,SKC,0.00,VWS V14.01,2013-07-22 04:56:00,
2013-07-22 01:01:00,64.6,63.1,16.97,North,360,0.0,0.0,95,0.00,,SKC,0.00,VWS V14.01,2013-07-22 05:01:00,
2013-07-22 01:06:00,64.5,63.0,16.97,North,5,0.0,0.0,95,0.00,,SKC,0.00,VWS V14.01,2013-07-22 05:06:00,
2013-07-22 01:11:00,64.5,63.0,16.97,North,5,0.0,0.0,95,0.00,,SKC,0.00,VWS V14.01,2013-07-22 05:11:00,
2013-07-22 01:16:00,64.5,63.0,16.97,North,360,0.0,0.0,95,0.00,,SKC,0.00,VWS V14.01,2013-07-22 05:16:00,
2013-07-22 01:21:00,64.4,62.9,16.97,North,5,0.0,0.0,95,0.00,,SKC,0.00,VWS V14.01,2013-07-22 05:21:00,
2013-07-22 01:26:00,64.4,62.9,16.97,North,5,0.0,0.0,95,0.00,,SKC,0.00,VWS V14.01,2013-07-22 05:26:00,
2013-07-22 01:31:00,64.4,62.9,16.97,North,5,0.0,0.0,95,0.00,,SKC,0.00,VWS V14.01,2013-07-22 05:31:00,
2013-07-22 01:36:00,64.3,62.8,16.97,North,5,0.0,0.0,95,0.00,,SKC,0.00,VWS V14.01,2013-07-22 05:36:00,
2013-07-22 01:41:00,64.2,62.7,16.97,North,5,0.0,0.0,95,0.00,,SKC,0.00,VWS V14.01,2013-07-22 05:41:00,
2013-07-22 01:46:00,64.2,62.7,16.97,North,360,0.0,0.0,95,0.00,,SKC,0.00,VWS V14.01,2013-07-22 05:46:00,
2013-07-22 01:51:00,64.1,62.6,16.97,North,360,0.0,0.0,95,0.00,,SKC,0.00,VWS V14.01,2013-07-22 05:51:00,
2013-07-22 01:56:00,64.1,62.6,16.97,North,5,0.0,0.0,95,0.00,,SKC,0.00,VWS V14.01,2013-07-22 05:56:00,
2013-07-22 02:01:00,64.1,62.6,16.97,North,5,0.0,0.0,95,0.00,,SKC,0.00,VWS V14.01,2013-07-22 06:01:00,
2013-07-22 02:06:00,64.1,62.6,16.97,North,5,0.0,0.0,95,0.00,,SKC,0.00,VWS V14.01,2013-07-22 06:06:00,
2013-07-22 02:11:00,64.0,62.5,16.97,North,360,0.0,0.0,95,0.00,,SKC,0.00,VWS V14.01,2013-07-22 06:11:00,
2013-07-22 02:16:00,64.0,62.5,16.97,North,5,0.0,0.0,95,0.00,,SKC,0.00,VWS V14.01,2013-07-22 06:16:00,
2013-07-22 02:20:00,64.0,62.5,16.97,North,5,0.0,0.0,95,0.00,,SKC,0.00,VWS V14.01,2013-07-22 06:20:00,
2013-07-22 02:25:00,63.9,62.4,16.97,North,360,0.0,0.0,95,0.00,,SKC,0.00,VWS V14.01,2013-07-22 06:25:00,
2013-07-22 02:30:00,63.8,62.3,16.97,North,5,0.0,0.0,95,0.00,,SKC,0.00,VWS V14.01,2013-07-22 06:30:00,
2013-07-22 02:35:00,63.8,62.3,16.97,North,5,0.0,0.0,95,0.00,,SKC,0.00,VWS V14.01,2013-07-22 06:35:00,
2013-07-22 02:40:00,63.7,62.2,16.97,North,5,0.0,0.0,95,0.00,,SKC,0.00,VWS V14.01,2013-07-22 06:40:00,
2013-07-22 02:45:00,63.7,62.2,16.97,North,5,0.0,0.0,95,0.00,,SKC,0.00,VWS V14.01,2013-07-22 06:45:00,
2013-07-22 02:50:00,63.6,62.2,16.97,North,5,0.0,0.0,95,0.00,,SKC,0.00,VWS V14.01,2013-07-22 06:50:00,
2013-07-22 02:55:00,63.4,62.0,16.97,North,360,0.0,0.0,95,0.00,,SKC,0.00,VWS V14.01,2013-07-22 06:55:00,
2013-07-22 03:00:00,63.4,62.0,16.97,North,5,0.0,0.0,95,0.00,,SKC,0.00,VWS V14.01,2013-07-22 07:00:00,
2013-07-22 03:05:00,63.3,61.8,16.97,North,5,0.0,0.0,95,0.00,,SKC,0.00,VWS V14.01,2013-07-22 07:05:00,
2013-07-22 03:10:00,63.2,61.8,16.97,North,360,0.0,0.0,95,0.00,,SKC,0.00,VWS V14.01,2013-07-22 07:10:00,
2013-07-22 03:15:00,63.1,61.7,16.97,North,5,0.0,0.0,95,0.00,,SKC,0.00,VWS V14.01,2013-07-22 07:15:00,
2013-07-22 03:20:00,63.1,61.7,16.97,North,5,0.0,0.0,95,0.00,,SKC,0.00,VWS V14.01,2013-07-22 07:20:00,
2013-07-22 03:25:00,63.1,61.7,16.97,North,5,0.0,0.0,95,0.00,,SKC,0.00,VWS V14.01,2013-07-22 07:25:00,
2013-07-22 03:30:00,63.0,61.5,16.97,North,5,0.0,0.0,95,0.00,,SKC,0.00,VWS V14.01,2013-07-22 07:30:00,
2013-07-22 03:35:00,63.0,61.5,16.97,North,5,0.0,0.0,95,0.00,,SKC,0.00,VWS V14.01,2013-07-22 07:35:00,
2013-07-22 03:40:00,63.0,61.5,16.97,North,360,0.0,0.0,95,0.00,,SKC,0.00,VWS V14.01,2013-07-22 07:40:00,
2013-07-22 03:45:00,63.0,61.5,16.97,North,360,0.0,0.0,95,0.00,,SKC,0.00,VWS V14.01,2013-07-22 07:45:00,
2013-07-22 03:50:00,62.9,61.5,16.97,North,5,0.0,0.0,95,0.00,,SKC,0.00,VWS V14.01,2013-07-22 07:50:00,
2013-07-22 03:55:00,62.8,61.3,16.97,North,360,0.0,0.0,95,0.00,,SKC,0.00,VWS V14.01,2013-07-22 07:55:00,
2013-07-22 04:00:00,62.8,61.3,16.97,North,360,0.0,0.0,95,0.00,,SKC,0.00,VWS V14.01,2013-07-22 08:00:00,
2013-07-22 04:05:00,62.8,61.3,16.97,North,5,0.0,0.0,95,0.00,,SKC,0.00,VWS V14.01,2013-07-22 08:05:00,
2013-07-22 04:10:00,62.8,61.3,16.97,North,5,0.0,0.0,95,0.00,,SKC,0.00,VWS V14.01,2013-07-22 08:10:00,
2013-07-22 04:15:00,62.8,61.3,16.97,North,5,0.0,0.0,95,0.00,,SKC,0.00,VWS V14.01,2013-07-22 08:15:00,
2013-07-22 04:20:00,62.7,61.2,16.97,North,360,0.0,0.0,95,0.00,,SKC,0.00,VWS V14.01,2013-07-22 08:20:00,
2013-07-22 04:25:00,62.6,61.5,16.97,North,360,0.0,0.0,96,0.00,,SKC,0.00,VWS V14.01,2013-07-22 08:25:00,
2013-07-22 04:30:00,62.6,61.2,16.97,North,360,0.0,0.0,95,0.00,,SKC,0.00,VWS V14.01,2013-07-22 08:30:00,
2013-07-22 04:35:00,62.8,61.3,16.97,North,5,1.0,1.0,95,0.00,,SKC,0.00,VWS V14.01,2013-07-22 08:35:00,
2013-07-22 04:40:00,63.0,61.8,16.97,North,5,0.0,0.0,96,0.00,,SKC,0.00,VWS V14.01,2013-07-22 08:40:00,
2013-07-22 04:45:00,63.0,61.8,16.97,North,360,0.0,0.0,96,0.00,,SKC,0.00,VWS V14.01,2013-07-22 08:45:00,
2013-07-22 04:50:00,62.9,61.5,16.97,North,360,0.0,0.0,95,0.00,,SKC,0.00,VWS V14.01,2013-07-22 08:50:00,
2013-07-22 04:55:00,62.8,61.3,16.97,North,360,0.0,2.0,95,0.00,,SKC,0.00,VWS V14.01,2013-07-22 08:55:00,
2013-07-22 05:00:00,62.9,61.5,16.97,North,5,0.0,0.0,95,0.00,,SKC,0.00,VWS V14.01,2013-07-22 09:00:00,
2013-07-22 05:05:00,62.9,61.5,16.97,North,5,0.0,0.0,95,0.00,,SKC,0.00,VWS V14.01,2013-07-22 09:05:00,
2013-07-22 05:10:00,62.8,61.3,16.97,North,5,1.0,1.0,95,0.00,,SKC,0.00,VWS V14.01,2013-07-22 09:10:00,
2013-07-22 05:15:00,62.7,61.2,16.97,North,5,1.0,1.0,95,0.00,,SKC,0.00,VWS V14.01,2013-07-22 09:15:00,
2013-07-22 05:20:00,62.7,61.2,16.97,North,360,0.0,0.0,95,0.00,,SKC,0.00,VWS V14.01,2013-07-22 09:20:00,
2013-07-22 05:25:00,62.6,61.5,16.97,North,5,0.0,0.0,96,0.00,,SKC,0.00,VWS V14.01,2013-07-22 09:25:00,
2013-07-22 05:30:00,62.5,61.3,16.97,North,360,0.0,0.0,96,0.00,,SKC,0.00,VWS V14.01,2013-07-22 09:30:00,
2013-07-22 05:35:00,62.3,61.2,16.97,North,360,0.0,0.0,96,0.00,,SKC,0.00,VWS V14.01,2013-07-22 09:35:00,
2013-07-22 05:40:00,62.3,60.8,16.97,North,5,0.0,0.0,95,0.00,,SKC,0.00,VWS V14.01,2013-07-22 09:40:00,
2013-07-22 05:45:00,62.3,60.8,16.97,North,5,0.0,0.0,95,0.00,,SKC,0.00,VWS V14.01,2013-07-22 09:45:00,
2013-07-22 05:50:00,62.3,61.2,16.97,North,5,1.0,3.0,96,0.00,,SKC,0.00,VWS V14.01,2013-07-22 09:50:00,
2013-07-22 05:55:00,62.3,61.2,16.97,North,360,0.0,0.0,96,0.00,,SKC,0.00,VWS V14.01,2013-07-22 09:55:00,
2013-07-22 06:00:00,62.2,60.8,16.97,North,360,0.0,0.0,95,0.00,,SKC,0.00,VWS V14.01,2013-07-22 10:00:00,
2013-07-22 06:05:00,62.2,60.8,16.97,North,5,0.0,0.0,95,0.00,,SKC,0.00,VWS V14.01,2013-07-22 10:05:00,
2013-07-22 06:10:00,62.3,60.8,16.97,North,5,0.0,0.0,95,0.00,,SKC,0.00,VWS V14.01,2013-07-22 10:10:00,
2013-07-22 06:15:00,62.3,61.2,16.97,North,360,0.0,0.0,96,0.00,,SKC,0.00,VWS V14.01,2013-07-22 10:15:00,
2013-07-22 06:20:00,62.2,60.8,16.97,North,5,0.0,0.0,95,0.00,,SKC,0.00,VWS V14.01,2013-07-22 10:20:00,
2013-07-22 06:25:00,62.2,60.8,16.97,North,360,0.0,0.0,95,0.00,,SKC,0.00,VWS V14.01,2013-07-22 10:25:00,
2013-07-22 06:30:00,62.1,60.7,16.97,North,5,0.0,0.0,95,0.00,,SKC,0.00,VWS V14.01,2013-07-22 10:30:00,
2013-07-22 06:35:00,62.1,60.7,16.97,North,5,0.0,0.0,95,0.00,,SKC,0.00,VWS V14.01,2013-07-22 10:35:00,
2013-07-22 06:40:00,62.1,61.0,16.97,North,5,0.0,0.0,96,0.00,,SKC,0.00,VWS V14.01,2013-07-22 10:40:00,
2013-07-22 06:45:00,62.1,61.0,16.97,North,5,0.0,0.0,96,0.00,,SKC,0.00,VWS V14.01,2013-07-22 10:45:00,
2013-07-22 06:50:00,62.2,61.0,16.97,North,5,0.0,0.0,96,0.00,,SKC,0.00,VWS V14.01,2013-07-22 10:50:00,
2013-07-22 06:55:00,62.2,61.0,16.97,North,360,0.0,0.0,96,0.00,,SKC,0.00,VWS V14.01,2013-07-22 10:55:00,
2013-07-22 07:00:00,62.3,61.2,16.97,North,360,0.0,0.0,96,0.00,,SKC,0.00,VWS V14.01,2013-07-22 11:00:00,
2013-07-22 07:05:00,62.3,61.2,16.97,North,360,0.0,0.0,96,0.00,,SKC,0.00,VWS V14.01,2013-07-22 11:05:00,
2013-07-22 07:10:00,62.5,61.3,16.97,North,360,0.0,0.0,96,0.00,,SKC,0.00,VWS V14.01,2013-07-22 11:10:00,
2013-07-22 07:15:00,62.6,61.5,16.97,North,5,0.0,0.0,96,0.00,,SKC,0.00,VWS V14.01,2013-07-22 11:15:00,
2013-07-22 07:20:00,62.8,61.7,16.97,North,5,0.0,0.0,96,0.00,,SKC,0.00,VWS V14.01,2013-07-22 11:20:00,
2013-07-22 07:25:00,63.0,61.8,16.97,North,5,0.0,0.0,96,0.00,,SKC,0.00,VWS V14.01,2013-07-22 11:25:00,
2013-07-22 07:30:00,63.0,61.8,16.97,North,5,0.0,0.0,96,0.00,,SKC,0.00,VWS V14.01,2013-07-22 11:30:00,
2013-07-22 07:35:00,63.1,61.9,16.97,North,5,0.0,0.0,96,0.00,,SKC,0.00,VWS V14.01,2013-07-22 11:35:00,
2013-07-22 07:40:00,63.2,62.0,16.97,North,5,0.0,0.0,96,0.00,,SKC,0.00,VWS V14.01,2013-07-22 11:40:00,
2013-07-22 07:45:00,63.3,62.1,16.97,North,5,0.0,0.0,96,0.00,,SKC,0.00,VWS V14.01,2013-07-22 11:45:00,
2013-07-22 07:50:00,63.4,62.2,16.97,North,5,0.0,0.0,96,0.00,,SKC,0.00,VWS V14.01,2013-07-22 11:50:00,
2013-07-22 07:55:00,63.7,62.5,16.97,North,360,0.0,0.0,96,0.00,,SKC,0.00,VWS V14.01,2013-07-22 11:55:00,
2013-07-22 08:00:00,63.9,62.7,16.97,North,5,0.0,0.0,96,0.00,,SKC,0.00,VWS V14.01,2013-07-22 12:00:00,
2013-07-22 08:05:00,64.1,62.9,16.97,North,5,0.0,0.0,96,0.00,,SKC,0.00,VWS V14.01,2013-07-22 12:05:00,
2013-07-22 08:10:00,64.2,63.0,16.97,North,5,0.0,0.0,96,0.00,,SKC,0.00,VWS V14.01,2013-07-22 12:10:00,
2013-07-22 08:15:00,64.4,63.2,16.97,North,360,0.0,0.0,96,0.00,,SKC,0.00,VWS V14.01,2013-07-22 12:15:00,
2013-07-22 08:20:00,64.8,63.6,16.97,North,360,0.0,0.0,96,0.00,,SKC,0.00,VWS V14.01,2013-07-22 12:20:00,
2013-07-22 08:24:00,65.0,63.8,16.97,North,360,0.0,0.0,96,0.00,,SKC,0.00,VWS V14.01,2013-07-22 12:24:00,
2013-07-22 08:29:00,65.2,64.0,16.97,North,360,0.0,0.0,96,0.00,,SKC,0.00,VWS V14.01,2013-07-22 12:29:00,
2013-07-22 08:34:00,65.2,64.0,16.97,North,360,0.0,0.0,96,0.00,,SKC,0.00,VWS V14.01,2013-07-22 12:34:00,
2013-07-22 08:39:00,65.2,64.0,16.97,North,5,0.0,0.0,96,0.00,,SKC,0.00,VWS V14.01,2013-07-22 12:39:00,
2013-07-22 08:44:00,65.3,64.1,16.97,North,360,0.0,0.0,96,0.00,,SKC,0.00,VWS V14.01,2013-07-22 12:44:00,
2013-07-22 08:49:00,65.4,64.2,16.97,North,5,0.0,0.0,96,0.00,,SKC,0.00,VWS V14.01,2013-07-22 12:49:00,
2013-07-22 08:54:00,65.6,64.4,16.97,North,360,0.0,0.0,96,0.00,,SKC,0.00,VWS V14.01,2013-07-22 12:54:00,
2013-07-22 08:59:00,65.7,64.5,16.97,North,5,0.0,0.0,96,0.00,,SKC,0.00,VWS V14.01,2013-07-22 12:59:00,
2013-07-22 09:04:00,65.8,64.6,16.97,North,360,0.0,0.0,96,0.00,,SKC,0.00,VWS V14.01,2013-07-22 13:04:00,
2013-07-22 09:09:00,65.7,64.5,16.97,North,5,0.0,0.0,96,0.00,,SKC,0.00,VWS V14.01,2013-07-22 13:09:00,
2013-07-22 09:14:00,65.7,64.5,16.97,North,5,0.0,0.0,96,0.00,,SKC,0.00,VWS V14.01,2013-07-22 13:14:00,
2013-07-22 09:19:00,65.7,64.5,16.97,North,5,0.0,0.0,96,0.00,,SKC,0.00,VWS V14.01,2013-07-22 13:19:00,
2013-07-22 09:24:00,66.0,64.8,16.97,North,5,0.0,0.0,96,0.00,,SKC,0.00,VWS V14.01,2013-07-22 13:24:00,
2013-07-22 09:29:00,66.3,65.1,16.97,North,360,0.0,0.0,96,0.00,,SKC,0.00,VWS V14.01,2013-07-22 13:29:00,
2013-07-22 09:34:00,66.5,65.3,16.97,North,5,0.0,0.0,96,0.00,,SKC,0.00,VWS V14.01,2013-07-22 13:34:00,
2013-07-22 09:39:00,67.2,66.0,16.97,North,360,0.0,0.0,96,0.00,,SKC,0.00,VWS V14.01,2013-07-22 13:39:00,
2013-07-22 09:44:00,67.9,66.7,16.97,North,360,1.0,1.0,96,0.00,,SKC,0.00,VWS V14.01,2013-07-22 13:44:00,
2013-07-22 09:49:00,68.5,67.3,16.97,North,5,0.0,0.0,96,0.00,,SKC,0.00,VWS V14.01,2013-07-22 13:49:00,
2013-07-22 09:54:00,69.3,67.8,16.97,North,5,0.0,0.0,95,0.00,,SKC,0.00,VWS V14.01,2013-07-22 13:54:00,
2013-07-22 09:59:00,70.0,66.9,16.97,North,5,0.0,0.0,90,0.00,,SKC,0.00,VWS V14.01,2013-07-22 13:59:00,
2013-07-22 10:04:00,70.5,66.8,16.97,North,360,0.0,0.0,88,0.00,,SKC,0.00,VWS V14.01,2013-07-22 14:04:00,
2013-07-22 10:09:00,71.2,67.8,16.97,North,5,0.0,0.0,89,0.00,,SKC,0.00,VWS V14.01,2013-07-22 14:09:00,
2013-07-22 10:14:00,71.3,66.9,16.97,North,5,0.0,0.0,86,0.00,,SKC,0.00,VWS V14.01,2013-07-22 14:14:00,
2013-07-22 10:19:00,71.4,67.0,16.97,North,5,0.0,0.0,86,0.00,,SKC,0.00,VWS V14.01,2013-07-22 14:19:00,
2013-07-22 10:24:00,71.5,66.4,16.97,North,5,1.0,2.0,84,0.00,,SKC,0.00,VWS V14.01,2013-07-22 14:24:00,
2013-07-22 10:29:00,71.5,67.1,16.97,North,5,1.0,1.0,86,0.00,,SKC,0.00,VWS V14.01,2013-07-22 14:29:00,
2013-07-22 10:34:00,71.7,66.9,16.97,North,5,0.0,1.0,85,0.00,,SKC,0.00,VWS V14.01,2013-07-22 14:34:00,
2013-07-22 10:39:00,71.8,66.0,16.97,ENE,71,1.0,1.0,82,0.00,,SKC,0.00,VWS V14.01,2013-07-22 14:39:00,
2013-07-22 10:44:00,72.0,65.9,16.97,South,180,0.0,2.0,81,0.00,,SKC,0.00,VWS V14.01,2013-07-22 14:44:00,
2013-07-22 10:49:00,71.9,66.5,16.97,South,182,2.0,3.0,83,0.00,,SKC,0.00,VWS V14.01,2013-07-22 14:49:00,
2013-07-22 10:54:00,71.9,65.0,16.97,South,182,1.0,1.0,79,0.00,,SKC,0.00,VWS V14.01,2013-07-22 14:54:00,
2013-07-22 10:59:00,72.1,66.3,16.97,South,182,0.0,1.0,82,0.00,,SKC,0.00,VWS V14.01,2013-07-22 14:59:00,
2013-07-22 11:04:00,72.1,65.6,16.97,NE,56,2.0,2.0,80,0.00,,SKC,0.00,VWS V14.01,2013-07-22 15:04:00,
2013-07-22 11:09:00,72.3,65.8,16.97,ENE,71,0.0,0.0,80,0.00,,SKC,0.00,VWS V14.01,2013-07-22 15:09:00,
2013-07-22 11:14:00,72.9,65.3,16.97,ENE,71,1.0,2.0,77,0.00,,SKC,0.00,VWS V14.01,2013-07-22 15:14:00,
2013-07-22 11:19:00,74.1,65.7,16.97,ENE,71,0.0,0.0,75,0.00,,SKC,0.00,VWS V14.01,2013-07-22 15:19:00,
2013-07-22 11:24:00,74.9,65.3,16.97,NE,53,0.0,0.0,72,0.00,,SKC,0.00,VWS V14.01,2013-07-22 15:24:00,
2013-07-22 11:29:00,75.1,65.9,16.97,NE,56,0.0,1.0,73,0.00,,SKC,0.00,VWS V14.01,2013-07-22 15:29:00,
2013-07-22 11:34:00,75.2,66.0,16.97,NNE,14,1.0,1.0,73,0.00,,SKC,0.00,VWS V14.01,2013-07-22 15:34:00,
2013-07-22 11:39:00,75.1,66.2,16.97,NNE,30,3.0,3.0,74,0.00,,SKC,0.00,VWS V14.01,2013-07-22 15:39:00,
2013-07-22 11:44:00,74.9,65.7,16.97,East,87,2.0,3.0,73,0.00,,SKC,0.00,VWS V14.01,2013-07-22 15:44:00,
2013-07-22 11:49:00,74.7,65.1,16.97,NE,44,2.0,2.0,72,0.00,,SKC,0.00,VWS V14.01,2013-07-22 15:49:00,
2013-07-22 11:54:00,74.7,65.1,16.97,NE,54,1.0,1.0,72,0.00,,SKC,0.00,VWS V14.01,2013-07-22 15:54:00,
2013-07-22 11:59:00,74.9,65.3,16.97,NE,44,3.0,3.0,72,0.00,,SKC,0.00,VWS V14.01,2013-07-22 15:59:00,
2013-07-22 12:04:00,75.2,66.3,16.97,ENE,57,4.0,4.0,74,0.00,,SKC,0.00,VWS V14.01,2013-07-22 16:04:00,
2013-07-22 12:09:00,75.2,66.0,16.97,SSW,197,0.0,1.0,73,0.00,,SKC,0.00,VWS V14.01,2013-07-22 16:09:00,
2013-07-22 12:14:00,75.2,66.0,16.97,SSE,165,1.0,1.0,73,0.00,,SKC,0.00,VWS V14.01,2013-07-22 16:14:00,
2013-07-22 12:19:00,74.6,65.8,16.97,SE,126,3.0,3.0,74,0.00,,SKC,0.00,VWS V14.01,2013-07-22 16:19:00,
2013-07-22 12:24:00,74.5,65.7,16.97,North,350,1.0,1.0,74,0.00,,SKC,0.00,VWS V14.01,2013-07-22 16:24:00,
2013-07-22 12:29:00,75.2,65.6,16.97,NNE,33,4.0,4.0,72,0.00,,SKC,0.00,VWS V14.01,2013-07-22 16:29:00,
2013-07-22 12:34:00,76.5,66.8,16.97,North,5,8.0,10.0,72,0.00,,SKC,0.00,VWS V14.01,2013-07-22 16:34:00,
2013-07-22 12:39:00,77.2,66.2,16.97,NE,42,2.0,2.0,69,0.00,,SKC,0.00,VWS V14.01,2013-07-22 16:39:00,
2013-07-22 12:44:00,77.7,65.4,16.97,SSE,155,5.0,7.0,66,0.00,,SKC,0.00,VWS V14.01,2013-07-22 16:44:00,
2013-07-22 12:49:00,77.3,66.3,16.97,East,79,3.0,3.0,69,0.00,,SKC,0.00,VWS V14.01,2013-07-22 16:49:00,
2013-07-22 12:54:00,77.4,66.4,16.97,North,360,3.0,5.0,69,0.00,,SKC,0.00,VWS V14.01,2013-07-22 16:54:00,
2013-07-22 12:59:00,78.1,66.7,16.97,East,86,3.0,3.0,68,0.00,,SKC,0.00,VWS V14.01,2013-07-22 16:59:00,
2013-07-22 13:04:00,78.7,66.8,16.97,NNE,12,2.0,4.0,67,0.00,,SKC,0.00,VWS V14.01,2013-07-22 17:04:00,
2013-07-22 13:09:00,79.0,66.7,16.97,East,80,2.0,3.0,66,0.00,,SKC,0.00,VWS V14.01,2013-07-22 17:09:00,
2013-07-22 13:14:00,79.3,66.1,16.97,ESE,106,2.0,8.0,64,0.00,,SKC,0.00,VWS V14.01,2013-07-22 17:14:00,
2013-07-22 13:19:00,78.9,66.6,16.97,West,277,1.0,3.0,66,0.00,,SKC,0.00,VWS V14.01,2013-07-22 17:19:00,
2013-07-22 13:24:00,78.7,66.0,16.97,ENE,76,3.0,3.0,65,0.00,,SKC,0.00,VWS V14.01,2013-07-22 17:24:00,
2013-07-22 13:29:00,78.3,65.1,16.97,WNW,293,0.0,3.0,64,0.00,,SKC,0.00,VWS V14.01,2013-07-22 17:29:00,
2013-07-22 13:34:00,78.1,64.9,16.97,NNW,327,0.0,4.0,64,0.00,,SKC,0.00,VWS V14.01,2013-07-22 17:34:00,
2013-07-22 13:39:00,78.5,65.8,16.97,SE,129,0.0,3.0,65,0.00,,SKC,0.00,VWS V14.01,2013-07-22 17:39:00,
2013-07-22 13:44:00,79.2,67.7,16.97,South,173,2.0,4.0,68,0.00,,SKC,0.00,VWS V14.01,2013-07-22 17:44:00,
2013-07-22 13:49:00,79.6,66.4,16.97,NNE,13,3.0,3.0,64,0.00,,SKC,0.00,VWS V14.01,2013-07-22 17:49:00,
2013-07-22 13:54:00,79.8,66.1,16.97,SSE,164,5.0,5.0,63,0.00,,SKC,0.00,VWS V14.01,2013-07-22 17:54:00,
2013-07-22 13:59:00,79.5,65.8,16.97,NNE,18,2.0,3.0,63,0.00,,SKC,0.00,VWS V14.01,2013-07-22 17:59:00,
2013-07-22 14:04:00,80.0,66.3,16.97,North,360,10.0,10.0,63,0.00,,SKC,0.00,VWS V14.01,2013-07-22 18:04:00,
2013-07-22 14:09:00,79.5,66.7,16.97,ENE,73,0.0,2.0,65,0.00,,SKC,0.00,VWS V14.01,2013-07-22 18:09:00,
2013-07-22 14:14:00,79.2,65.1,16.97,South,184,4.0,6.0,62,0.00,,SKC,0.00,VWS V14.01,2013-07-22 18:14:00,
2013-07-22 14:19:00,79.0,64.9,16.97,NNE,28,5.0,6.0,62,0.00,,SKC,0.00,VWS V14.01,2013-07-22 18:19:00,
2013-07-22 14:24:00,79.4,66.2,16.97,NE,51,3.0,10.0,64,0.00,,SKC,0.00,VWS V14.01,2013-07-22 18:24:00,
2013-07-22 14:29:00,80.0,65.8,16.97,East,81,7.0,9.0,62,0.00,,SKC,0.00,VWS V14.01,2013-07-22 18:29:00,
2013-07-22 14:34:00,79.9,66.2,16.97,ENE,65,5.0,9.0,63,0.00,,SKC,0.00,VWS V14.01,2013-07-22 18:34:00,
2013-07-22 14:39:00,80.0,66.3,16.97,NW,322,3.0,4.0,63,0.00,,SKC,0.00,VWS V14.01,2013-07-22 18:39:00,
2013-07-22 14:44:00,80.7,66.5,16.97,SSW,195,1.0,5.0,62,0.00,,SKC,0.00,VWS V14.01,2013-07-22 18:44:00,
2013-07-22 14:49:00,80.6,66.4,16.97,East,84,2.0,6.0,62,0.00,,SKC,0.00,VWS V14.01,2013-07-22 18:49:00,
2013-07-22 14:54:00,80.5,66.3,16.97,North,11,3.0,5.0,62,0.00,,SKC,0.00,VWS V14.01,2013-07-22 18:54:00,
2013-07-22 14:59:00,80.4,66.7,16.97,SSE,165,2.0,2.0,63,0.00,,SKC,0.00,VWS V14.01,2013-07-22 18:59:00,
2013-07-22 15:04:00,80.4,66.7,16.97,SW,231,1.0,3.0,63,0.00,,SKC,0.00,VWS V14.01,2013-07-22 19:04:00,
2013-07-22 15:09:00,80.2,66.5,16.97,NE,51,1.0,4.0,63,0.00,,SKC,0.00,VWS V14.01,2013-07-22 19:09:00,
2013-07-22 15:14:00,79.7,66.9,16.97,South,175,3.0,3.0,65,0.00,,SKC,0.00,VWS V14.01,2013-07-22 19:14:00,
2013-07-22 15:19:00,79.7,66.5,16.97,NNE,24,1.0,3.0,64,0.00,,SKC,0.00,VWS V14.01,2013-07-22 19:19:00,
2013-07-22 15:24:00,80.1,66.8,16.97,SSW,192,0.0,0.0,64,0.00,,SKC,0.00,VWS V14.01,2013-07-22 19:24:00,
2013-07-22 15:29:00,80.2,67.4,16.97,South,184,2.0,3.0,65,0.00,,SKC,0.00,VWS V14.01,2013-07-22 19:29:00,
2013-07-22 15:34:00,79.9,66.7,16.97,NNW,336,12.0,12.0,64,0.00,,SKC,0.00,VWS V14.01,2013-07-22 19:34:00,
2013-07-22 15:39:00,79.8,66.6,16.97,ENE,61,7.0,7.0,64,0.00,,SKC,0.00,VWS V14.01,2013-07-22 19:39:00,
2013-07-22 15:44:00,80.2,67.4,16.97,SW,227,0.0,9.0,65,0.00,,SKC,0.00,VWS V14.01,2013-07-22 19:44:00,
2013-07-22 15:49:00,79.9,66.7,16.97,West,268,1.0,2.0,64,0.00,,SKC,0.00,VWS V14.01,2013-07-22 19:49:00,
2013-07-22 15:55:00,78.9,65.7,16.97,ESE,119,0.0,4.0,64,0.00,,SKC,0.00,VWS V14.01,2013-07-22 19:55:00,
2013-07-22 16:00:00,78.1,65.4,16.97,NE,37,1.0,8.0,65,0.00,,SKC,0.00,VWS V14.01,2013-07-22 20:00:00,
2013-07-22 16:05:00,77.8,65.5,16.97,SSE,157,1.0,3.0,66,0.00,,SKC,0.00,VWS V14.01,2013-07-22 20:05:00,
2013-07-22 16:10:00,77.9,66.1,16.97,East,83,1.0,3.0,67,0.00,,SKC,0.00,VWS V14.01,2013-07-22 20:10:00,
2013-07-22 16:15:00,78.0,65.7,16.97,South,178,2.0,5.0,66,0.00,,SKC,0.00,VWS V14.01,2013-07-22 20:15:00,
2013-07-22 16:16:00,78.1,65.8,16.97,East,90,0.0,8.0,66,0.00,,SKC,0.00,VWS V14.01,2013-07-22 20:16:00,
2013-07-22 16:17:00,78.1,66.3,16.97,East,90,1.0,2.0,67,0.00,,SKC,0.00,VWS V14.01,2013-07-22 20:17:00,
2013-07-22 16:22:00,79.1,65.9,16.97,NNE,30,2.0,5.0,64,0.00,,SKC,0.00,VWS V14.01,2013-07-22 20:22:00,
2013-07-22 16:27:00,80.0,67.2,16.97,SSE,155,2.0,8.0,65,0.00,,SKC,0.00,VWS V14.01,2013-07-22 20:27:00,
2013-07-22 16:32:00,80.1,65.9,31.41,SSE,167,0.0,1.0,62,0.00,,SKC,0.00,VWS V14.01,2013-07-22 20:32:00,
2013-07-22 16:37:00,80.0,65.8,31.41,North,355,2.0,8.0,62,0.00,,SKC,0.00,VWS V14.01,2013-07-22 20:37:00,
2013-07-22 16:42:00,80.2,66.0,31.41,SE,144,6.0,9.0,62,0.00,,SKC,0.00,VWS V14.01,2013-07-22 20:42:00,
2013-07-22 16:43:00,80.1,65.4,31.41,East,82,1.0,7.0,61,0.00,,SKC,0.00,VWS V14.01,2013-07-22 20:43:00,
2013-07-22 16:48:00,79.8,66.1,31.41,SSW,195,2.0,10.0,63,0.00,,SKC,0.00,VWS V14.01,2013-07-22 20:48:00,
2013-07-22 16:53:00,80.2,66.0,31.41,West,268,4.0,4.0,62,0.00,,SKC,0.00,VWS V14.01,2013-07-22 20:53:00,
2013-07-22 16:58:00,80.7,66.5,31.41,SW,214,2.0,6.0,62,0.00,,SKC,0.00,VWS V14.01,2013-07-22 20:58:00,
2013-07-22 17:03:00,80.5,65.8,31.41,NE,45,3.0,7.0,61,0.00,,SKC,0.00,VWS V14.01,2013-07-22 21:03:00,
2013-07-22 17:08:00,80.1,65.4,31.41,NNW,335,2.0,2.0,61,0.00,,SKC,0.00,VWS V14.01,2013-07-22 21:08:00,
2013-07-22 17:13:00,80.4,65.7,31.41,NNW,335,0.0,1.0,61,0.00,,SKC,0.00,VWS V14.01,2013-07-22 21:13:00,
2013-07-22 17:17:00,80.6,65.4,31.41,NNW,343,0.0,3.0,60,0.00,,SKC,0.00,VWS V14.01,2013-07-22 21:17:00,
2013-07-22 17:22:00,80.9,65.7,31.41,West,278,0.0,5.0,60,0.00,,SKC,0.00,VWS V14.01,2013-07-22 21:22:00,
2013-07-22 17:27:00,80.4,65.3,31.41,NNE,12,6.0,8.0,60,0.00,,SKC,0.00,VWS V14.01,2013-07-22 21:27:00,
2013-07-22 17:32:00,80.1,65.9,31.41,NNE,20,7.0,7.0,62,0.00,,SKC,0.00,VWS V14.01,2013-07-22 21:32:00,
2013-07-22 17:37:00,79.9,65.7,31.41,NE,42,4.0,7.0,62,0.00,,SKC,0.00,VWS V14.01,2013-07-22 21:37:00,
2013-07-22 17:42:00,79.9,66.2,31.41,North,355,2.0,6.0,63,0.00,,SKC,0.00,VWS V14.01,2013-07-22 21:42:00,
2013-07-22 17:47:00,80.3,65.6,31.41,SSW,200,2.0,2.0,61,0.00,,SKC,0.00,VWS V14.01,2013-07-22 21:47:00,
2013-07-22 17:52:00,80.3,66.1,31.41,NNE,21,4.0,7.0,62,0.00,,SKC,0.00,VWS V14.01,2013-07-22 21:52:00,
2013-07-22 17:57:00,80.0,66.7,31.41,NNW,346,1.0,2.0,64,0.00,,SKC,0.00,VWS V14.01,2013-07-22 21:57:00,
2013-07-22 18:02:00,79.7,66.5,31.41,ENE,63,1.0,1.0,64,0.00,,SKC,0.00,VWS V14.01,2013-07-22 22:02:00,
2013-07-22 18:07:00,79.4,67.1,31.41,ENE,67,3.0,4.0,66,0.00,,SKC,0.00,VWS V14.01,2013-07-22 22:07:00,
2013-07-22 18:12:00,79.1,67.2,31.41,ENE,67,3.0,3.0,67,0.00,,SKC,0.00,VWS V14.01,2013-07-22 22:12:00,
2013-07-22 18:17:00,78.4,67.4,31.41,ENE,59,7.0,7.0,69,0.00,,SKC,0.00,VWS V14.01,2013-07-22 22:17:00,
2013-07-22 18:22:00,77.7,66.3,31.41,ENE,67,3.0,3.0,68,0.00,,SKC,0.00,VWS V14.01,2013-07-22 22:22:00,
2013-07-22 18:27:00,77.2,66.2,31.41,ENE,73,0.0,2.0,69,0.00,,SKC,0.00,VWS V14.01,2013-07-22 22:27:00,
2013-07-22 18:32:00,76.8,66.3,31.41,NNE,16,0.0,3.0,70,0.00,,SKC,0.00,VWS V14.01,2013-07-22 22:32:00,
2013-07-22 18:37:00,76.5,66.8,31.41,NNE,33,3.0,3.0,72,0.00,,SKC,0.00,VWS V14.01,2013-07-22 22:37:00,
2013-07-22 18:42:00,76.6,66.9,31.41,NE,44,2.0,3.0,72,0.00,,SKC,0.00,VWS V14.01,2013-07-22 22:42:00,
2013-07-22 18:47:00,77.5,67.4,31.41,North,349,0.0,2.0,71,0.00,,SKC,0.00,VWS V14.01,2013-07-22 22:47:00,
2013-07-22 18:52:00,77.8,67.2,31.41,NNE,20,1.0,1.0,70,0.00,,SKC,0.00,VWS V14.01,2013-07-22 22:52:00,
2013-07-22 18:57:00,78.0,67.4,31.41,NNE,19,2.0,2.0,70,0.00,,SKC,0.00,VWS V14.01,2013-07-22 22:57:00,
2013-07-22 19:02:00,78.4,67.4,31.41,NNE,19,2.0,4.0,69,0.00,,SKC,0.00,VWS V14.01,2013-07-22 23:02:00,
2013-07-22 19:07:00,78.0,67.0,31.41,SW,223,1.0,3.0,69,0.00,,SKC,0.00,VWS V14.01,2013-07-22 23:07:00,
2013-07-22 19:12:00,77.3,66.8,31.41,SW,230,1.0,1.0,70,0.00,,SKC,0.00,VWS V14.01,2013-07-22 23:12:00,
2013-07-22 19:17:00,76.6,66.1,31.41,SW,222,0.0,1.0,70,0.00,,SKC,0.00,VWS V14.01,2013-07-22 23:17:00,
2013-07-22 19:22:00,76.1,66.0,31.41,SW,221,1.0,1.0,71,0.00,,SKC,0.00,VWS V14.01,2013-07-22 23:22:00,
2013-07-22 19:27:00,75.4,65.8,31.41,South,180,0.0,0.0,72,0.00,,SKC,0.00,VWS V14.01,2013-07-22 23:27:00,
2013-07-22 19:32:00,75.1,65.9,31.41,SSE,168,3.0,3.0,73,0.00,,SKC,0.00,VWS V14.01,2013-07-22 23:32:00,
2013-07-22 19:37:00,75.0,66.2,31.41,SW,227,0.0,0.0,74,0.00,,SKC,0.00,VWS V14.01,2013-07-22 23:37:00,
2013-07-22 19:42:00,74.7,66.3,31.41,NNW,338,2.0,3.0,75,0.00,,SKC,0.00,VWS V14.01,2013-07-22 23:42:00,
2013-07-22 19:47:00,74.3,65.9,31.41,NNW,346,0.0,0.0,75,0.00,,SKC,0.00,VWS V14.01,2013-07-22 23:47:00,
2013-07-22 19:52:00,73.9,65.9,31.41,NNW,346,0.0,1.0,76,0.00,,SKC,0.00,VWS V14.01,2013-07-22 23:52:00,
2013-07-22 19:57:00,73.6,66.3,31.41,NNW,346,0.0,0.0,78,0.00,,SKC,0.00,VWS V14.01,2013-07-22 23:57:00,
2013-07-22 20:02:00,73.3,66.0,31.41,NNW,344,0.0,4.0,78,0.00,,SKC,0.00,VWS V14.01,2013-07-23 00:02:00,
2013-07-22 20:07:00,73.0,66.1,31.41,ESE,105,1.0,1.0,79,0.00,,SKC,0.00,VWS V14.01,2013-07-23 00:07:00,
2013-07-22 20:12:00,72.8,65.9,31.41,ESE,111,1.0,1.0,79,0.00,,SKC,0.00,VWS V14.01,2013-07-23 00:12:00,
2013-07-22 20:17:00,72.7,66.2,31.41,ESE,111,0.0,1.0,80,0.00,,SKC,0.00,VWS V14.01,2013-07-23 00:17:00,
2013-07-22 20:22:00,72.7,66.2,31.41,ESE,111,0.0,2.0,80,0.01,,SKC,0.01,VWS V14.01,2013-07-23 00:22:00,
2013-07-22 20:27:00,72.4,66.9,31.41,ESE,111,0.0,0.0,83,0.01,,SKC,0.01,VWS V14.01,2013-07-23 00:27:00,
2013-07-22 20:32:00,71.7,66.9,31.41,ESE,106,0.0,1.0,85,0.03,,SKC,0.03,VWS V14.01,2013-07-23 00:32:00,
2013-07-22 20:37:00,70.9,66.8,31.41,ENE,69,1.0,2.0,87,0.12,,SKC,0.12,VWS V14.01,2013-07-23 00:37:00,
2013-07-22 20:42:00,70.1,66.4,31.41,SW,219,2.0,3.0,88,0.15,,SKC,0.15,VWS V14.01,2013-07-23 00:42:00,
2013-07-22 20:47:00,69.5,66.1,31.41,SW,220,0.0,2.0,89,0.15,,SKC,0.15,VWS V14.01,2013-07-23 00:47:00,
2013-07-22 20:52:00,69.3,66.2,31.41,SW,221,0.0,0.0,90,0.15,,SKC,0.15,VWS V14.01,2013-07-23 00:52:00,
2013-07-22 20:57:00,69.0,66.3,31.41,SW,219,0.0,1.0,91,0.15,,SKC,0.15,VWS V14.01,2013-07-23 00:57:00,
2013-07-22 21:02:00,68.8,66.1,31.41,SW,221,0.0,0.0,91,0.15,,SKC,0.15,VWS V14.01,2013-07-23 01:02:00,
2013-07-22 21:07:00,68.6,65.9,31.41,SW,220,1.0,2.0,91,0.15,,SKC,0.15,VWS V14.01,2013-07-23 01:07:00,
2013-07-22 21:12:00,68.6,65.9,31.41,SE,129,2.0,2.0,91,0.15,,SKC,0.15,VWS V14.01,2013-07-23 01:12:00,
2013-07-22 21:17:00,68.5,65.5,31.41,South,186,0.0,3.0,90,0.15,,SKC,0.15,VWS V14.01,2013-07-23 01:17:00,
2013-07-22 21:22:00,68.4,65.4,31.41,South,182,3.0,5.0,90,0.14,,SKC,0.15,VWS V14.01,2013-07-23 01:22:00,
2013-07-22 21:27:00,68.2,64.8,31.41,SSW,213,0.0,4.0,89,0.14,,SKC,0.15,VWS V14.01,2013-07-23 01:27:00,
2013-07-22 21:32:00,68.1,64.1,31.41,NNE,13,1.0,3.0,87,0.13,,SKC,0.15,VWS V14.01,2013-07-23 01:32:00,
2013-07-22 21:37:00,68.2,64.2,31.41,WSW,240,3.0,3.0,87,0.05,,SKC,0.15,VWS V14.01,2013-07-23 01:37:00,
2013-07-22 21:42:00,68.0,63.7,31.41,South,177,3.0,3.0,86,0.00,,SKC,0.15,VWS V14.01,2013-07-23 01:42:00,
2013-07-22 21:47:00,67.8,63.8,31.41,ESE,123,0.0,5.0,87,0.00,,SKC,0.15,VWS V14.01,2013-07-23 01:47:00,
2013-07-22 21:52:00,67.6,63.9,31.41,SSW,192,2.0,3.0,88,0.00,,SKC,0.15,VWS V14.01,2013-07-23 01:52:00,
2013-07-22 21:57:00,67.5,63.8,31.41,South,183,2.0,2.0,88,0.00,,SKC,0.15,VWS V14.01,2013-07-23 01:57:00,
2013-07-22 22:02:00,67.4,63.7,31.41,South,184,1.0,2.0,88,0.00,,SKC,0.15,VWS V14.01,2013-07-23 02:02:00,
2013-07-22 22:07:00,67.2,63.8,31.41,South,181,1.0,2.0,89,0.00,,SKC,0.15,VWS V14.01,2013-07-23 02:07:00,
2013-07-22 22:12:00,66.9,63.6,31.41,South,182,2.0,4.0,89,0.00,,SKC,0.15,VWS V14.01,2013-07-23 02:12:00,
2013-07-22 22:17:00,66.7,63.7,31.41,South,182,0.0,2.0,90,0.00,,SKC,0.15,VWS V14.01,2013-07-23 02:17:00,
2013-07-22 22:22:00,66.4,63.4,31.41,South,182,0.0,0.0,90,0.00,,SKC,0.15,VWS V14.01,2013-07-23 02:22:00,
2013-07-22 22:27:00,66.2,63.5,31.41,South,182,0.0,0.0,91,0.00,,SKC,0.15,VWS V14.01,2013-07-23 02:27:00,
2013-07-22 22:32:00,65.9,63.2,31.41,South,180,0.0,0.0,91,0.00,,SKC,0.15,VWS V14.01,2013-07-23 02:32:00,
2013-07-22 22:37:00,65.7,63.3,31.41,South,180,0.0,0.0,92,0.00,,SKC,0.15,VWS V14.01,2013-07-23 02:37:00,
2013-07-22 22:42:00,65.4,63.0,31.41,South,180,0.0,0.0,92,0.00,,SKC,0.15,VWS V14.01,2013-07-23 02:42:00,
2013-07-22 22:47:00,65.2,62.8,31.41,South,180,0.0,1.0,92,0.00,,SKC,0.15,VWS V14.01,2013-07-23 02:47:00,
2013-07-22 22:52:00,64.9,62.5,31.41,South,180,0.0,1.0,92,0.00,,SKC,0.15,VWS V14.01,2013-07-23 02:52:00,
2013-07-22 22:57:00,64.8,62.7,31.41,South,180,0.0,0.0,93,0.00,,SKC,0.15,VWS V14.01,2013-07-23 02:57:00,
2013-07-22 23:02:00,64.7,62.6,31.41,South,180,0.0,0.0,93,0.00,,SKC,0.15,VWS V14.01,2013-07-23 03:02:00,
2013-07-22 23:07:00,64.5,62.4,31.41,South,180,0.0,0.0,93,0.00,,SKC,0.15,VWS V14.01,2013-07-23 03:07:00,
2013-07-22 23:12:00,64.5,62.4,31.41,South,180,0.0,0.0,93,0.00,,SKC,0.15,VWS V14.01,2013-07-23 03:12:00,
2013-07-22 23:17:00,64.4,62.3,31.41,South,180,0.0,0.0,93,0.00,,SKC,0.15,VWS V14.01,2013-07-23 03:17:00,
2013-07-22 23:22:00,64.3,62.2,31.41,South,180,0.0,0.0,93,0.00,,SKC,0.15,VWS V14.01,2013-07-23 03:22:00,
2013-07-22 23:27:00,64.2,62.1,31.41,South,180,0.0,0.0,93,0.00,,SKC,0.15,VWS V14.01,2013-07-23 03:27:00,
2013-07-22 23:32:00,64.1,62.3,31.41,South,180,0.0,0.0,94,0.00,,SKC,0.15,VWS V14.01,2013-07-23 03:32:00,
2013-07-22 23:37:00,64.1,62.3,31.41,South,180,0.0,0.0,94,0.00,,SKC,0.15,VWS V14.01,2013-07-23 03:37:00,
2013-07-22 23:42:00,64.0,62.2,31.41,South,180,0.0,0.0,94,0.00,,SKC,0.15,VWS V14.01,2013-07-23 03:42:00,
2013-07-22 23:47:00,64.0,62.2,31.41,South,180,0.0,0.0,94,0.00,,SKC,0.15,VWS V14.01,2013-07-23 03:47:00,
2013-07-22 23:51:00,63.9,62.1,31.41,South,180,0.0,0.0,94,0.00,,SKC,0.15,VWS V14.01,2013-07-23 03:51:00,
2013-07-22 23:56:00,63.9,62.1,31.41,NE,40,0.0,1.0,94,0.00,,SKC,0.15,VWS V14.01,2013-07-23 03:56:00,